FW6626 Weather Reports


time (UTC)temp
C
wind
direction
speed
KPH
gust
KPH
rain 1hr
cm
rain 24hr
cm
rain mn
cm
humidity
%
barometer
mb
20260505074550 14 277 1.6 11.3 0.00 0.03 0.00 79 1014.9
20260505073108 13 255 3.2 12.9 0.00 0.03 0.00 83 1015.1
20260505071553 15 259 4.8 12.9 0.00 0.03 0.00 84 1015.1
20260505070055 15 277 3.2 16.1 0.00 0.03 0.00 83 1015.1
20260505064602 15 0 1.6 9.7 0.00 0.03 0.03 82 1015.4
20260505063055 15 0 1.6 6.4 0.00 0.03 0.03 82 1015.3
20260505061553 15 271 3.2 9.7 0.00 0.03 0.03 82 1015.3
20260505054604 15 0 1.6 12.9 0.00 0.03 0.03 82 1015.6
20260505053112 15 250 3.2 17.7 0.00 0.03 0.03 82 1015.7
20260505051555 15 261 9.7 20.9 0.00 0.03 0.03 82 1015.8
20260505041612 16 231 11.3 20.9 0.00 0.03 0.03 78 1015.7
20260505040057 16 360 8.0 17.7 0.00 0.03 0.03 77 1015.6
20260505034548 16 269 3.2 11.3 0.00 0.03 0.03 79 1015.6
20260505033054 16 288 6.4 12.9 0.00 0.03 0.03 78 1015.5
20260505031600 16 279 6.4 16.1 0.00 0.03 0.03 77 1015.4
20260505030052 16 246 8.0 16.1 0.00 0.03 0.03 76 1015.2
20260505024558 16 260 6.4 14.5 0.00 0.03 0.03 76 1015.0
20260505023102 16 264 4.8 14.5 0.00 0.03 0.03 76 1015.2
20260505021555 16 360 6.4 17.7 0.00 0.03 0.03 75 1015.3
20260505020052 16 257 9.7 19.3 0.00 0.03 0.03 76 1015.2
20260505014556 17 248 9.7 17.7 0.00 0.03 0.03 75 1015.2
20260505013101 17 250 9.7 19.3 0.00 0.03 0.03 74 1015.4
20260505011557 17 249 11.3 20.9 0.00 0.03 0.03 73 1015.2
20260505010050 17 254 12.9 24.1 0.00 0.03 0.03 72 1015.3
20260505004552 17 246 12.9 24.1 0.00 0.03 0.03 70 1015.4
20260505003056 18 260 9.7 25.7 0.00 0.03 0.03 68 1015.4
20260505001553 18 360 12.9 22.5 0.00 0.03 0.03 67 1015.4
20260505000058 18 238 12.9 22.5 0.00 0.03 0.03 67 1015.4
20260504234602 18 284 9.7 25.7 0.00 0.03 0.03 69 1015.3
20260504233051 17 360 12.9 22.5 0.00 0.03 0.03 70 1015.4
20260504231601 18 259 9.7 24.1 0.00 0.03 0.03 67 1015.5
20260504230057 18 226 12.9 24.1 0.00 0.03 0.03 67 1015.4
20260504224556 18 240 12.9 22.5 0.00 0.03 0.03 65 1015.4
20260504223054 19 360 11.3 24.1 0.00 0.03 0.03 65 1015.6
20260504221600 18 234 12.9 24.1 0.00 0.03 0.03 68 1015.8
20260504220057 18 234 11.3 24.1 0.00 0.03 0.03 66 1016.0
20260504214554 19 240 12.9 27.4 0.00 0.03 0.03 66 1016.2
20260504213050 18 360 14.5 29.0 0.00 0.03 0.03 67 1016.3
20260504211557 18 267 11.3 24.1 0.00 0.03 0.03 66 1016.4
20260504210108 19 238 12.9 25.7 0.00 0.03 0.03 63 1016.5
20260504204600 18 259 11.3 25.7 0.00 0.03 0.03 66 1016.7
20260504203054 18 296 8.0 22.5 0.00 0.03 0.03 67 1016.7
20260504201555 18 329 9.7 24.1 0.00 0.03 0.03 65 1016.6
20260504194608 18 360 6.4 19.3 0.00 0.03 0.03 66 1016.7
20260504193053 18 304 11.3 20.9 0.00 0.03 0.03 66 1016.9
20260504191557 18 265 9.7 22.5 0.00 0.03 0.03 68 1017.1
20260504190117 18 294 8.0 22.5 0.00 0.03 0.03 69 1017.0
20260504184600 18 296 9.7 22.5 0.00 0.03 0.03 68 1017.3
20260504183053 17 290 11.3 22.5 0.00 0.03 0.03 68 1017.2
20260504181553 18 307 11.3 32.2 0.00 0.03 0.03 68 1017.1
20260504180142 17 276 11.3 19.3 0.00 0.03 0.03 70 1017.2
20260504174551 17 267 11.3 24.1 0.00 0.03 0.03 70 1016.9
20260504173100 17 248 11.3 24.1 0.00 0.03 0.03 69 1016.9
20260504171553 16 292 9.7 22.5 0.00 0.03 0.03 73 1016.8
20260504120111 14 0 0.0 4.8 0.00 0.00 0.00 81 1015.4
20260504081552 15 272 6.4 19.3 0.00 0.00 0.00 81 1015.8